Home   Weather   Salt Lake City   Past weeks

Flag for USA Past Weather in Salt Lake City, Utah, USA — Yesterday and Last 2 Weeks

Now
44 °F

Passing clouds.


Feels Like: 40 °F
Forecast: 40 / 51 °F
Wind: 8 mph from Southeast

Location: Salt Lake City International Airport

Current Time: Apr 26, 2017 at 12:26:23 am

Latest Report: Apr 25, 2017 at 11:54 pm


Visibility: 10 mi

Pressure: 29.89 "Hg (25.47 "Hg at 1312m altitude)

Humidity: 76%

Dew Point: 37 °F

Location of Salt Lake CityLocation

Past Weather in Salt Lake City — Graph

°F

Salt Lake City Temperature Yesterday

Maximum temperature yesterday: 51 °F (at 3:54 pm)
Minimum temperature yesterday: 36 °F (at 12:11 pm)
Average temperature yesterday: 44 °F

High & Low Weather Summary for the Past Weeks

 TemperatureHumidityPressure
High80 °F (Apr 13, 4:54 pm)96% (Apr 18, 7:54 pm)30.25 "Hg (Apr 18, 7:54 pm)
Low36 °F (Apr 25, 12:11 pm)9% (Apr 13, 5:54 pm)29.39 "Hg (Apr 13, 4:54 pm)
Average52 °F56%29.93 "Hg
* Reported Apr 10 10:54 pm — Apr 25 10:54 pm, Salt Lake City, Weather by CustomWeather, © 2017

Note: Actual official high and low records may vary slightly from our data, if they occured in-between our weather recording intervals... More about our weather records

Advertising

Salt Lake City Weather History for the Previous 24 Hours

Scroll right to see more
 ConditionsComfort  
Time TempWeatherWind HumidityBarometerVisibility
10:54 pm
Tue, Apr 25
46 °FPassing clouds.9 mph73%29.90 "Hg10 mi
9:54 pm46 °FPassing clouds.7 mph77%29.90 "Hg10 mi
8:54 pm49 °FPartly cloudy.5 mph64%29.87 "Hg10 mi
7:54 pm50 °FBroken clouds.No wind61%29.86 "Hg10 mi
6:54 pm51 °FPartly sunny.7 mph56%29.86 "Hg10 mi
5:54 pm51 °FPartly sunny.12 mph56%29.85 "Hg10 mi
4:54 pm51 °FPartly sunny.13 mph61%29.83 "Hg10 mi
3:54 pm51 °FPartly sunny.9 mph59%29.83 "Hg10 mi
3:22 pm50 °FPartly sunny.3 mph63%29.87 "Hg10 mi
2:54 pm49 °FBroken clouds.9 mph66%29.83 "Hg10 mi
1:54 pm47 °FBroken clouds.10 mph80%29.84 "Hg10 mi
12:54 pm42 °FLight rain. Broken clouds.8 mph85%29.85 "Hg8 mi
12:11 pm36 °FLight rain. Fog.7 mph92%29.88 "Hg6 mi
12:01 pm42 °FHail. Fog.15 mph85%29.87 "Hg4 mi
11:42 am42 °FLight rain. Partly sunny.No wind85%29.86 "Hg10 mi
11:27 am42 °FLight rain. Broken clouds.3 mph85%29.85 "Hg10 mi
11:06 am42 °FLight rain. Partly sunny.6 mph89%29.84 "Hg10 mi
10:54 am41 °FLight rain. Broken clouds.6 mph89%29.81 "Hg10 mi
9:54 am40 °FLight rain. Fog.15 mph93%29.79 "Hg3 mi
9:03 am41 °FLight rain. Partly sunny.13 mph93%29.79 "Hg9 mi
8:54 am42 °FLight rain. Partly sunny.18 mph85%29.75 "Hg10 mi
7:54 am42 °FLight rain. Cloudy.12 mph89%29.72 "Hg8 mi
7:38 am42 °FLight rain. Mostly cloudy.10 mph85%29.76 "Hg7 mi
7:01 am42 °FMostly cloudy.15 mph85%29.75 "Hg10 mi
6:23 am42 °FMostly cloudy.6 mph96%29.74 "Hg10 mi
5:54 am42 °FPartly cloudy.5 mph92%29.70 "Hg10 mi
5:05 am42 °FRain. Fog.No wind89%29.75 "Hg6 mi
4:54 am42 °FLight rain. Partly cloudy.3 mph92%29.70 "Hg9 mi
3:54 am42 °FLight rain. Mostly cloudy.7 mph92%29.70 "Hg10 mi
2:54 am42 °FPassing clouds.8 mph92%29.70 "Hg10 mi
1:54 am43 °FMostly cloudy.8 mph86%29.71 "Hg10 mi
12:54 am43 °FPassing clouds.6 mph93%29.70 "Hg10 mi
Weather by CustomWeather, © 2017

See weather overviewHow to use our weather pages